Hourly Data Report for March 16, 2004

SHERBROOKE A
QUEBEC

45°26'00.000" N
71°41'00.000" W
241.40 m
7028124
71610
YSC

Download Data

Hourly Data (March 2004)
Hourly Data Report for March 16, 2004
TIME
LST
Temp Definition
°C
Dew Point Definition
°C
Rel Hum Definition
%
Precip. Amount Definition
mm

Wind Dir Definition
10's deg

Wind Spd Definition
km/h
Visibility Definition
km
Stn Press Definition
kPa
Hmdx Definition


Wind Chill Definition


Weather Definition


00:00 -6.5 -15.3 50   28 11 15.0 99.41   -11  
01:00 -7.3 -15.9 50   30 15 15.0 99.52   -13  
02:00 -8.6 -16.3 54   26 11 15.0 99.52   -14  
03:00 -9.4 -17.7 51   28 13 15.0 99.55   -15  
04:00 -10.2 -18.2 52   29 11 15.0 99.63   -16  
05:00 -11.5 -18.8 55   28 11 15.0 99.68   -17  
06:00 -11.6 -20.1 49   30 13 15.0 99.75   -18  
07:00 -11.7 -21.6 44   30 15 15.0 99.79   -19  
08:00 -11.5 -21.9 42   30 7 24.1 99.90   -16 Mostly Cloudy
09:00 -10.8 -22.0 39   35 4 24.1 99.87   -13 Mostly Cloudy
10:00 -9.9 -21.9 37   28 7 24.1 99.88   -14 Mostly Cloudy
11:00 -8.8 -22.2 33   26 6 24.1 99.85   -12 Mostly Cloudy
12:00 -7.1 -22.0 29     0 24.1 99.78     Mostly Cloudy
13:00 -7.0 -23.2 26   17 4 24.1 99.65   -9 Cloudy
14:00 -6.3 -22.7 26   26 7 24.1 99.54   -10 Cloudy
15:00 -5.8 -20.2 31   29 6 24.1 99.51   -9 Cloudy
16:00 -5.9 -24.4 22   1 6 24.1 99.46   -9 Cloudy
17:00 -6.5 -22.0 28   3 7 24.1 99.40   -10 Cloudy
18:00 -7.7 -20.7 34   1 9 15.0 99.36   -12  
19:00 -7.8 -20.5 35   3 13 15.0 99.30   -14  
20:00 -8.3 -20.6 36   4 15 15.0 99.26   -15  
21:00 -9.1 -20.0 41   4 15 15.0 99.16   -16  
22:00 -9.4 -19.5 44   6 7 15.0 99.25   -13  
23:00 -9.4 -19.1 45   5 13 15.0 99.04   -15  

Notes on Data Quality.

Legend

  • E = Estimated
  • M = Missing
  • NA = Not Available*
  • [empty] = Indicates an unobserved value
Date modified: